Romorantin, France

10:07 PM CET on January 23, 2018 (GMT +0100)
Pruniers Air Base

Weather History for LFYR - December, 2012

Change the Weather History Date:

Thursday, December 6, 2012

  Actual Average Record
Temperature  
Mean Temperature 32 °F -  
Max Temperature 41 °F - - ()
Min Temperature 23 °F - - ()
Degree Days  
Heating Degree Days 33    
Moisture  
Dew Point 30 °F    
Average Humidity 92    
Maximum Humidity 100    
Minimum Humidity 65    
Precipitation  
Precipitation 0.00 in - - ()
Sea Level Pressure  
Sea Level Pressure 30.07 in    
Wind  
Wind Speed 3 mph ()    
Max Wind Speed 6 mph    
Max Gust Speed -    
Visibility 5.0 miles    
Events      
T = Trace of Precipitation, MM = Missing Value Source: Averaged Metar Reports

Daily Weather History Graph

Daily Weather History Graph

Search for Another Location

Airport or City:

Trip Planner

Search our weather history database for the weather conditions in past years. The results will help you decide how hot, cold, wet, or windy it might be!

Date:

Astronomy

Dec. 06, 2012 Rise Set
Actual Time 8:25 AM CET 5:03 PM CET
Civil Twilight 7:50 AM CET 5:38 PM CET
Nautical Twilight 7:11 AM CET 6:17 PM CET
Astronomical Twilight 6:34 AM CET 6:54 PM CET
Moon No Moon Rise 12:48 PM CET (12/6)
Length of Visible Light 9h 48m
Length of Day
8h 37m
Waning Gibbous, 52% of the Moon is Illuminated
Dec 6
Waning Gibbous
Dec 6
Last Quarter
Dec 13
New
Dec 20
First Quarter
Dec 28
Full

Hourly Weather History & Observations

Time (CET) Temp. Windchill Dew Point Humidity Pressure Visibility Wind Dir Wind Speed Gust Speed Precip Events Conditions
12:00 AM 33.8 °F 29.6 °F 32.0 °F 93% 29.98 in - West 4.6 mph - N/A   Unknown
1:00 AM 32.0 °F 28.7 °F 32.0 °F 100% 30.01 in - Variable 3.5 mph - N/A   Unknown
2:00 AM 32.0 °F 28.7 °F 32.0 °F 100% 30.04 in - West 3.5 mph - N/A   Unknown
3:00 AM 32.0 °F - 30.2 °F 93% 30.04 in - Variable 2.3 mph - N/A   Unknown
4:00 AM 26.6 °F - 24.8 °F 93% 30.06 in - Variable 2.3 mph - N/A   Unknown
5:00 AM 30.2 °F 26.7 °F 30.2 °F 100% 30.06 in - WSW 3.5 mph - N/A   Unknown
6:00 AM 28.4 °F - 28.4 °F 100% 30.09 in 5.0 mi WSW 2.3 mph - N/A   Unknown
7:00 AM 24.8 °F - 24.8 °F 100% 30.12 in 5.0 mi SW 2.3 mph - N/A   Unknown
8:00 AM 23.0 °F - 23.0 °F 100% 30.12 in 3.1 mi Calm Calm - N/A   Unknown
9:00 AM 24.8 °F - 24.8 °F 100% 30.12 in 3.1 mi Calm Calm - N/A   Unknown
10:00 AM 30.2 °F 26.7 °F 28.4 °F 93% 30.15 in 5.0 mi Variable 3.5 mph - N/A   Unknown
11:00 AM 33.8 °F 30.8 °F 32.0 °F 93% 30.18 in - SW 3.5 mph - N/A   Clear
2:00 PM 41.0 °F 38.0 °F 33.8 °F 76% 30.12 in 6.2 mi South 4.6 mph - N/A   Mostly Cloudy
3:00 PM 39.2 °F 37.0 °F 33.8 °F 81% 30.12 in 6.2 mi South 3.5 mph - N/A   Mostly Cloudy
4:00 PM 41.0 °F 37.1 °F 30.2 °F 65% 30.09 in 6.2 mi SW 5.8 mph - N/A   Mostly Cloudy
5:00 PM 37.4 °F - 32.0 °F 81% 30.09 in - South 2.3 mph - N/A   Clear
6:00 PM 35.6 °F 32.8 °F 32.0 °F 87% 30.09 in - SSE 3.5 mph - N/A   Unknown
7:00 PM 33.8 °F 29.6 °F 32.0 °F 93% 30.06 in - South 4.6 mph - N/A   Unknown
8:00 PM 35.6 °F 30.7 °F 33.8 °F 93% 30.06 in - South 5.8 mph - N/A   Unknown
9:00 PM 33.8 °F 30.8 °F 32.0 °F 93% 30.04 in - South 3.5 mph - N/A   Unknown
10:00 PM 33.8 °F 29.6 °F 32.0 °F 93% 30.01 in - South 4.6 mph - N/A   Unknown
11:00 PM 33.8 °F 30.8 °F 32.0 °F 93% 29.98 in - SSW 3.5 mph - N/A   Unknown